Belen, NM

7:08 PM MST on January 16, 2017 (GMT -0700)
Belen

Weather History for KE80 - January, 2013

Change the Weather History Date:

Tuesday, January 15, 2013

  Actual Average (KABQ) Record (KABQ)
Temperature  
Mean Temperature 16 °F -  
Max Temperature 30 °F 48 °F 64 °F (1936)
Min Temperature 3 °F 22 °F 3 °F (1997)
Degree Days  
Heating Degree Days 48    
Moisture  
Dew Point -2 °F    
Average Humidity 47    
Maximum Humidity 73    
Minimum Humidity 22    
Precipitation  
Precipitation 0.00 in - - ()
Sea Level Pressure  
Sea Level Pressure 30.21 in    
Wind  
Wind Speed 8 mph (NNE)    
Max Wind Speed 14 mph    
Max Gust Speed 18 mph    
Visibility 10 miles    
Events      
Averages and records for this station are not official NWS values.
T = Trace of Precipitation, MM = Missing Value Source: NWS Daily Summary

Daily Weather History Graph

Daily Weather History Graph

Search for Another Location

Airport or City:

Trip Planner

Search our weather history database for the weather conditions in past years. The results will help you decide how hot, cold, wet, or windy it might be!

Date:

Astronomy

Jan. 15, 2013 Rise Set
Actual Time 7:13 AM MST 5:20 PM MST
Civil Twilight 6:46 AM MST 5:47 PM MST
Nautical Twilight 6:15 AM MST 6:18 PM MST
Astronomical Twilight 5:45 AM MST 6:48 PM MST
Moon 9:33 AM MST (1/15) 9:58 PM MST (1/15)
Length of Visible Light 11h 00m
Length of Day
10h 06m
Waxing Crescent, 20% of the Moon is Illuminated
Jan 15
Waxing Crescent
Jan 18
First Quarter
Jan 26
Full
Feb 3
Last Quarter
Feb 10
New

Hourly Weather History & Observations

Time (MST) Temp. Windchill Dew Point Humidity Pressure Visibility Wind Dir Wind Speed Gust Speed Precip Events Conditions
12:15 AM 15.3 °F 3.5 °F 4.8 °F 63% 30.08 in 10.0 mi North 9.2 mph - N/A   Scattered Clouds
12:35 AM 13.5 °F 3.3 °F 3.9 °F 66% 30.08 in 10.0 mi NNE 6.9 mph - N/A   Clear
1:15 AM 13.1 °F 1.8 °F 3.9 °F 67% 30.09 in 10.0 mi North 8.1 mph - N/A   Scattered Clouds
1:35 AM 14.0 °F 2.9 °F 3.7 °F 64% 30.10 in 10.0 mi North 8.1 mph - N/A   Mostly Cloudy
1:55 AM 13.8 °F 6.2 °F 3.0 °F 62% 30.10 in 10.0 mi NE 4.6 mph - N/A   Overcast
2:15 AM 13.1 °F 1.8 °F 3.0 °F 64% 30.10 in 10.0 mi North 8.1 mph - N/A   Overcast
2:35 AM 11.3 °F -0.4 °F 2.1 °F 67% 30.11 in 10.0 mi NNE 8.1 mph - N/A   Scattered Clouds
2:55 AM 11.8 °F 0.3 °F 1.8 °F 64% 30.11 in 10.0 mi North 8.1 mph - N/A   Clear
3:55 AM 8.2 °F -1.8 °F 0.1 °F 70% 30.12 in 10.0 mi NNW 5.8 mph - N/A   Clear
4:15 AM 10.0 °F -1.9 °F 0.5 °F 65% 30.12 in 10.0 mi North 8.1 mph - N/A   Clear
4:35 AM 9.0 °F -0.9 °F -0.6 °F 65% 30.13 in 10.0 mi NW 5.8 mph - N/A   Clear
4:55 AM 9.0 °F 0.6 °F -0.6 °F 65% 30.13 in 10.0 mi NNW 4.6 mph - N/A   Clear
5:15 AM 9.0 °F -0.9 °F -0.9 °F 64% 30.13 in 10.0 mi North 5.8 mph - N/A   Clear
5:35 AM 4.6 °F -2.5 °F -2.7 °F 72% 30.14 in 10.0 mi NW 3.5 mph - N/A   Clear
5:55 AM 7.5 °F 0.8 °F -1.1 °F 68% 30.15 in 10.0 mi North 3.5 mph - N/A   Clear
6:15 AM 4.8 °F -2.3 °F -2.6 °F 72% 30.15 in 10.0 mi North 3.5 mph - N/A   Clear
6:35 AM 3.9 °F -6.9 °F -3.1 °F 73% 30.15 in 10.0 mi NNE 5.8 mph - N/A   Clear
6:55 AM 4.8 °F -4.3 °F -2.0 °F 73% 30.17 in 10.0 mi NNE 4.6 mph - N/A   Clear
7:15 AM 4.8 °F -7.1 °F -3.3 °F 69% 30.17 in 10.0 mi North 6.9 mph - N/A   Clear
7:35 AM 4.1 °F -8.0 °F -3.5 °F 71% 30.18 in 10.0 mi North 6.9 mph - N/A   Clear
7:55 AM 6.3 °F -2.6 °F -2.2 °F 68% 30.19 in 10.0 mi NW 4.6 mph - N/A   Clear
8:15 AM 9.7 °F 3.2 °F -1.5 °F 61% 30.20 in 10.0 mi NW 3.5 mph - N/A   Clear
8:35 AM 12.7 °F 6.7 °F -0.0 °F 57% 30.20 in 10.0 mi North 3.5 mph - N/A   Clear
8:55 AM 14.9 °F 2.3 °F -0.4 °F 51% 30.21 in 10.0 mi NNE 10.4 mph - N/A   Clear
9:15 AM 15.6 °F 2.5 °F -0.6 °F 49% 30.22 in 10.0 mi NNE 11.5 mph - N/A   Clear
9:35 AM 16.3 °F 2.1 °F -0.9 °F 47% 30.23 in 10.0 mi NNE 13.8 mph - N/A   Clear
9:55 AM 17.6 °F 4.3 °F -1.3 °F 44% 30.24 in 10.0 mi NNE 12.7 mph - N/A   Clear
10:15 AM 19.0 °F 6.8 °F -0.9 °F 42% 30.24 in 10.0 mi NNE 11.5 mph - N/A   Clear
10:35 AM 20.1 °F 9.5 °F -0.9 °F 40% 30.24 in 10.0 mi NNE 9.2 mph - N/A   Clear
10:55 AM 21.2 °F 13.6 °F -2.0 °F 36% 30.23 in 10.0 mi NNW 5.8 mph - N/A   Clear
11:15 AM 22.5 °F 13.2 °F -2.2 °F 34% 30.22 in 10.0 mi North 8.1 mph - N/A   Clear
11:35 AM 23.0 °F 13.9 °F -2.6 °F 33% 30.21 in 10.0 mi NNE 8.1 mph - N/A   Clear
11:55 AM 23.7 °F 13.3 °F -3.6 °F 30% 30.20 in 10.0 mi North 10.4 mph - N/A   Clear
12:15 PM 24.3 °F 15.4 °F -4.5 °F 28% 30.20 in 10.0 mi NNW 8.1 mph - N/A   Clear
12:35 PM 25.0 °F 16.3 °F -4.5 °F 28% 30.19 in 10.0 mi NNW 8.1 mph - N/A   Clear
12:55 PM 25.7 °F 17.1 °F -4.0 °F 27% 30.19 in 10.0 mi NW 8.1 mph - N/A   Clear
1:15 PM 26.6 °F 16.8 °F -4.9 °F 25% 30.18 in 10.0 mi NW 10.4 mph 17.3 mph N/A   Clear
1:35 PM 27.3 °F 17.1 °F -4.4 °F 25% 30.18 in 10.0 mi North 11.5 mph 18.4 mph N/A   Clear
1:55 PM 27.9 °F 20.6 °F -6.2 °F 23% 30.17 in 10.0 mi NNE 6.9 mph - N/A   Clear
2:35 PM 29.1 °F 20.0 °F -5.4 °F 22% 30.18 in 10.0 mi North 10.4 mph 16.1 mph N/A   Clear
2:55 PM 29.5 °F 22.5 °F -5.1 °F 22% 30.19 in 10.0 mi North 6.9 mph - N/A   Clear
3:15 PM 30.0 °F 21.1 °F -4.2 °F 23% 30.20 in 10.0 mi North 10.4 mph - N/A   Clear
3:35 PM 29.8 °F 19.8 °F -4.2 °F 23% 30.21 in 10.0 mi NNW 12.7 mph - N/A   Clear
3:55 PM 30.0 °F 20.0 °F -3.1 °F 24% 30.21 in 10.0 mi NNE 12.7 mph - N/A   Clear
4:15 PM 28.6 °F 19.3 °F -2.2 °F 27% 30.22 in 10.0 mi NE 10.4 mph - N/A   Clear
4:35 PM 27.5 °F 17.4 °F -1.7 °F 28% 30.23 in 10.0 mi NE 11.5 mph - N/A   Clear
4:55 PM 26.6 °F 18.2 °F -1.3 °F 30% 30.23 in 10.0 mi NE 8.1 mph - N/A   Clear
5:15 PM 25.5 °F 17.8 °F -1.3 °F 31% 30.24 in 10.0 mi NE 6.9 mph - N/A   Clear
5:35 PM 23.9 °F 15.8 °F -1.7 °F 33% 30.24 in 10.0 mi ENE 6.9 mph - N/A   Clear
5:55 PM 23.0 °F 13.9 °F -2.2 °F 33% 30.25 in 10.0 mi ENE 8.1 mph - N/A   Clear
6:15 PM 22.5 °F 13.2 °F -2.2 °F 34% 30.26 in 10.0 mi ENE 8.1 mph - N/A   Clear
6:35 PM 21.0 °F 11.4 °F -3.1 °F 35% 30.27 in 10.0 mi NE 8.1 mph - N/A   Clear
6:55 PM 18.7 °F 9.5 °F -4.0 °F 37% 30.27 in 10.0 mi NE 6.9 mph - N/A   Clear
7:15 PM 16.9 °F 9.8 °F -4.4 °F 39% 30.29 in 10.0 mi NE 4.6 mph - N/A   Clear
7:35 PM 18.3 °F 10.2 °F -3.6 °F 38% 30.29 in 10.0 mi NNE 5.8 mph - N/A   Clear
7:55 PM 15.1 °F 7.7 °F -4.7 °F 41% 30.29 in 10.0 mi ENE 4.6 mph - N/A   Clear
8:15 PM 14.7 °F 5.9 °F -4.7 °F 42% 30.30 in 10.0 mi ENE 5.8 mph - N/A   Clear
8:35 PM 14.4 °F 3.3 °F -5.1 °F 42% 30.31 in 10.0 mi ENE 8.1 mph - N/A   Clear
8:55 PM 14.2 °F 3.1 °F -4.0 °F 44% 30.32 in 10.0 mi ENE 8.1 mph - N/A   Clear
9:15 PM 15.3 °F 4.4 °F -2.2 °F 46% 30.32 in 10.0 mi ENE 8.1 mph - N/A   Clear
9:35 PM 14.0 °F 2.9 °F -2.2 °F 49% 30.33 in 10.0 mi NE 8.1 mph - N/A   Clear
9:55 PM 14.4 °F 3.3 °F -1.8 °F 49% 30.33 in 10.0 mi NNE 8.1 mph - N/A   Clear
10:15 PM 14.9 °F 5.0 °F -1.1 °F 49% 30.33 in 10.0 mi NNE 6.9 mph - N/A   Clear
10:35 PM 15.4 °F 3.8 °F -0.8 °F 49% 30.33 in 10.0 mi NNE 9.2 mph - N/A   Clear
11:15 PM 11.8 °F 2.5 °F -2.4 °F 53% 30.34 in 10.0 mi NNE 5.8 mph - N/A   Clear
11:35 PM 9.3 °F -0.5 °F -5.4 °F 51% 30.35 in 10.0 mi North 5.8 mph - N/A   Clear
11:55 PM 10.9 °F 1.4 °F -3.3 °F 53% 30.36 in 10.0 mi North 5.8 mph - N/A   Clear